Location: Brede
(50.9167°N, 0.6000°E)
Time: 20:39:43
(UTC+00:00)

Vanguard 1 Rocket - Pass Details

Date: 26 November 2020
Orbit: 655 x 4221 km, 34.3° (Epoch: 17 January)

Event Time Altitude Azimuth Distance (km) Brightness Sun altitude
Exits shadow 04:18:59 27° 231° (SW) 5,208 10.7 -29.6°
Maximum altitude 04:29:10 43° 185° (S) 3,620 10.3 -28.0°
Drops below altitude 10° 04:40:47 10° 119° (ESE) 4,294 11.6 -26.2°
Sets 04:43:38 0° 112° (ESE) 4,916 12.3 -25.7°
